Ludington, MI

2:30 AM EDT on October 14, 2019 (GMT -0400)
Mason County

Weather History for KLDM - May, 2019

Change the Weather History Date:

Saturday, May 4, 2019

  Actual Average Record
Temperature  
Mean Temperature 45 °F -  
Max Temperature 58 °F 62 °F 81 °F (1959)
Min Temperature 32 °F 38 °F 25 °F (1966)
Degree Days  
Heating Degree Days 20    
Moisture  
Dew Point 36 °F    
Average Humidity 69    
Maximum Humidity 97    
Minimum Humidity 44    
Precipitation  
Precipitation 0.00 in - - ()
Sea Level Pressure  
Sea Level Pressure 29.98 in    
Wind  
Wind Speed 3 mph (West)    
Max Wind Speed 9 mph    
Max Gust Speed -    
Visibility 10 miles    
Events      
Averages and records for this station are not official NWS values.
T = Trace of Precipitation, MM = Missing Value Source: NWS Daily Summary

Daily Weather History Graph

Daily Weather History Graph

Search for Another Location

Airport or City:

Astronomy

May. 04, 2019 Rise Set
Actual Time 6:33 AM EDT 8:52 PM EDT
Civil Twilight 6:01 AM EDT 9:24 PM EDT
Nautical Twilight 5:21 AM EDT 10:04 PM EDT
Astronomical Twilight 4:37 AM EDT 10:48 PM EDT
Moon 6:48 AM EDT (5/4) 8:38 PM EDT (5/4)
Length of Visible Light 15h 22m
Length of Day
14h 18m
Waning Crescent, 0% of the Moon is Illuminated
May 4
Waning Crescent
May 4
New
May 11
First Quarter
May 18
Full
May 26
Last Quarter

Hourly Weather History & Observations

Time (EDT) Temp. Windchill Dew Point Humidity Pressure Visibility Wind Dir Wind Speed Gust Speed Precip Events Conditions
12:15 AM 39.0 °F 34.8 °F 33.8 °F 82% 30.03 in 10.0 mi North 5.8 mph - N/A   Clear
12:35 AM 41.2 °F 39.2 °F 33.1 °F 73% 30.03 in 10.0 mi North 3.5 mph - N/A   Clear
12:36 AM 41.2 °F 39.2 °F 33.1 °F 73% 30.03 in 10.0 mi North 3.5 mph - N/A   Clear
12:55 AM 40.1 °F - 33.3 °F 77% 30.04 in 10.0 mi Calm Calm - N/A   Scattered Clouds
12:56 AM 40.1 °F - 33.3 °F 77% 30.04 in 10.0 mi Calm Calm - N/A   Scattered Clouds
1:15 AM 36.9 °F - 34.0 °F 89% 30.04 in 10.0 mi Calm Calm - N/A   Mostly Cloudy
1:16 AM 37.0 °F - 34.2 °F 89% 30.04 in 10.0 mi Calm Calm - N/A   Overcast
1:35 AM 39.0 °F - 35.1 °F 86% 30.03 in 10.0 mi Calm Calm - N/A   Overcast
1:55 AM 38.1 °F - 35.2 °F 89% 30.02 in 10.0 mi Calm Calm - N/A   Overcast
2:15 AM 37.8 °F - 34.9 °F 89% 30.02 in 10.0 mi Calm Calm - N/A   Scattered Clouds
2:16 AM 37.8 °F - 34.9 °F 89% 30.01 in 10.0 mi Calm Calm - N/A   Scattered Clouds
2:35 AM 37.0 °F - 33.8 °F 88% 30.01 in 10.0 mi Calm Calm - N/A   Clear
2:36 AM 37.2 °F - 34.0 °F 88% 30.01 in 10.0 mi Calm Calm - N/A   Clear
2:55 AM 36.1 °F - 34.3 °F 93% 30.00 in 10.0 mi Calm Calm - N/A   Clear
3:15 AM 35.2 °F - 32.9 °F 91% 30.01 in 10.0 mi Calm Calm - N/A   Clear
3:35 AM 35.8 °F - 34.3 °F 94% 30.01 in 10.0 mi Calm Calm - N/A   Clear
3:36 AM 35.8 °F - 34.2 °F 94% 30.01 in 10.0 mi Calm Calm - N/A   Clear
3:55 AM 34.7 °F - 33.3 °F 94% 30.01 in 10.0 mi Calm Calm - N/A   Clear
3:56 AM 34.7 °F - 33.3 °F 94% 30.01 in 10.0 mi Calm Calm - N/A   Clear
4:15 AM 33.3 °F - 32.4 °F 96% 30.00 in 10.0 mi Calm Calm - N/A   Clear
4:35 AM 33.4 °F - 32.5 °F 96% 30.02 in 10.0 mi Calm Calm - N/A   Clear
4:55 AM 35.1 °F 31.0 °F 34.0 °F 96% 30.02 in 10.0 mi NNW 4.6 mph - N/A   Clear
5:15 AM 36.9 °F - 35.8 °F 96% 30.02 in 10.0 mi Calm Calm - N/A   Clear
5:16 AM 36.9 °F - 35.6 °F 95% 30.02 in 10.0 mi Calm Calm - N/A   Clear
5:35 AM 33.1 °F - 32.0 °F 96% 30.02 in 10.0 mi Calm Calm - N/A   Clear
5:36 AM 32.9 °F - 31.8 °F 96% 30.02 in 10.0 mi Calm Calm - N/A   Clear
5:55 AM 32.0 °F - 31.1 °F 96% 30.02 in 3.0 mi Calm Calm - N/A   Clear
6:15 AM 33.1 °F - 32.4 °F 97% 30.02 in 10.0 mi Calm Calm - N/A   Clear
6:35 AM 32.9 °F - 32.2 °F 97% 30.02 in 10.0 mi Calm Calm - N/A   Clear
6:55 AM 33.1 °F - 32.2 °F 96% 30.02 in 10.0 mi Calm Calm - N/A   Clear
6:56 AM 33.1 °F - 32.4 °F 97% 30.03 in 10.0 mi Calm Calm - N/A   Clear
7:15 AM 32.9 °F - 32.0 °F 96% 30.03 in 10.0 mi Calm Calm - N/A   Clear
7:16 AM 32.9 °F - 32.0 °F 96% 30.03 in 10.0 mi Calm Calm - N/A   Clear
7:35 AM 34.2 °F - 33.4 °F 97% 30.03 in 10.0 mi Calm Calm - N/A   Clear
7:55 AM 36.5 °F - 35.4 °F 96% 30.04 in 10.0 mi Calm Calm - N/A   Clear
8:15 AM 40.3 °F - 36.7 °F 87% 30.04 in 10.0 mi Calm Calm - N/A   Clear
8:16 AM 40.3 °F - 36.7 °F 87% 30.04 in 10.0 mi Calm Calm - N/A   Clear
8:35 AM 42.4 °F - 36.9 °F 81% 30.04 in 10.0 mi Calm Calm - N/A   Clear
8:36 AM 42.6 °F - 36.9 °F 80% 30.04 in 10.0 mi Calm Calm - N/A   Clear
8:55 AM 45.0 °F - 37.4 °F 75% 30.03 in 10.0 mi Calm Calm - N/A   Clear
9:15 AM 48.0 °F - 36.7 °F 65% 30.03 in 10.0 mi Calm Calm - N/A   Clear
9:35 AM 49.5 °F - 35.6 °F 59% 30.03 in 10.0 mi Calm Calm - N/A   Clear
9:55 AM 51.1 °F - 36.3 °F 57% 30.03 in 10.0 mi Calm Calm - N/A   Clear
9:56 AM 51.3 °F - 36.1 °F 56% 30.03 in 10.0 mi Calm Calm - N/A   Clear
10:15 AM 53.6 °F - 35.2 °F 50% 30.03 in 10.0 mi West 3.5 mph - N/A   Clear
10:16 AM 53.6 °F - 35.2 °F 50% 30.03 in 10.0 mi Calm Calm - N/A   Clear
10:35 AM 54.0 °F - 36.0 °F 51% 30.03 in 10.0 mi Calm Calm - N/A   Clear
10:55 AM 54.5 °F - 37.4 °F 52% 30.02 in 10.0 mi West 5.8 mph - N/A   Clear
11:15 AM 55.6 °F - 35.1 °F 46% 30.02 in 10.0 mi Calm Calm - N/A   Clear
11:35 AM 55.4 °F - 37.8 °F 52% 30.01 in 10.0 mi West 5.8 mph - N/A   Clear
11:36 AM 55.6 °F - 37.8 °F 51% 30.01 in 10.0 mi West 6.9 mph - N/A   Clear
11:55 AM 55.6 °F - 37.9 °F 52% 30.01 in 10.0 mi West 8.1 mph - N/A   Clear
11:56 AM 55.6 °F - 37.6 °F 51% 30.01 in 10.0 mi West 8.1 mph - N/A   Clear
12:15 PM 53.6 °F - 35.8 °F 51% 30.01 in 10.0 mi West 9.2 mph - N/A   Clear
12:35 PM 52.5 °F - 35.6 °F 53% 30.00 in 10.0 mi West 6.9 mph - N/A   Clear
12:55 PM 53.6 °F - 36.7 °F 53% 30.00 in 10.0 mi West 5.8 mph - N/A   Clear
12:56 PM 53.8 °F - 36.7 °F 52% 30.00 in 10.0 mi West 4.6 mph - N/A   Clear
1:15 PM 54.7 °F - 37.2 °F 52% 29.99 in 10.0 mi WSW 8.1 mph - N/A   Clear
1:16 PM 54.7 °F - 37.6 °F 53% 30.00 in 10.0 mi WSW 8.1 mph - N/A   Clear
1:35 PM 53.8 °F - 37.8 °F 55% 29.99 in 10.0 mi West 6.9 mph - N/A   Clear
1:55 PM 55.2 °F - 38.7 °F 54% 29.99 in 10.0 mi West 5.8 mph - N/A   Clear
2:15 PM 55.6 °F - 38.3 °F 52% 29.99 in 10.0 mi West 6.9 mph - N/A   Clear
2:35 PM 54.5 °F - 37.6 °F 53% 29.98 in 10.0 mi WSW 9.2 mph - N/A   Clear
2:36 PM 54.3 °F - 37.6 °F 53% 29.98 in 10.0 mi WSW 9.2 mph - N/A   Clear
2:55 PM 54.0 °F - 37.6 °F 54% 29.97 in 10.0 mi WSW 9.2 mph - N/A   Clear
2:56 PM 54.0 °F - 37.6 °F 54% 29.97 in 10.0 mi WSW 9.2 mph - N/A   Clear
3:15 PM 54.5 °F - 37.4 °F 52% 29.97 in 10.0 mi WSW 9.2 mph - N/A   Clear
3:16 PM 54.5 °F - 37.4 °F 52% 29.97 in 10.0 mi WSW 9.2 mph - N/A   Clear
3:35 PM 54.9 °F - 37.8 °F 53% 29.96 in 10.0 mi WSW 8.1 mph - N/A   Clear
3:55 PM 55.0 °F - 37.9 °F 53% 29.96 in 10.0 mi WSW 8.1 mph - N/A   Clear
4:15 PM 55.4 °F - 38.1 °F 52% 29.95 in 10.0 mi WSW 8.1 mph - N/A   Clear
4:35 PM 54.7 °F - 37.8 °F 53% 29.94 in 10.0 mi WSW 8.1 mph - N/A   Clear
4:36 PM 54.7 °F - 37.8 °F 53% 29.94 in 10.0 mi WSW 8.1 mph - N/A   Clear
4:55 PM 55.2 °F - 38.1 °F 53% 29.93 in 10.0 mi WSW 6.9 mph - N/A   Clear
4:56 PM 55.4 °F - 37.9 °F 52% 29.93 in 10.0 mi WSW 6.9 mph - N/A   Clear
5:15 PM 55.6 °F - 37.2 °F 50% 29.93 in 10.0 mi WSW 5.8 mph - N/A   Clear
5:16 PM 55.8 °F - 37.2 °F 50% 29.93 in 10.0 mi WSW 5.8 mph - N/A   Clear
5:35 PM 56.3 °F - 36.3 °F 47% 29.92 in 10.0 mi WSW 4.6 mph - N/A   Clear
5:55 PM 57.4 °F - 36.3 °F 45% 29.92 in 10.0 mi WSW 4.6 mph - N/A   Clear
6:15 PM 58.6 °F - 36.9 °F 44% 29.92 in 10.0 mi WSW 5.8 mph - N/A   Clear
6:16 PM 58.6 °F - 36.9 °F 44% 29.92 in 10.0 mi WSW 6.9 mph - N/A   Clear
6:35 PM 57.6 °F - 37.2 °F 47% 29.92 in 10.0 mi West 5.8 mph - N/A   Clear
6:36 PM 57.6 °F - 37.2 °F 47% 29.92 in 10.0 mi West 4.6 mph - N/A   Clear
6:55 PM 55.6 °F - 37.2 °F 50% 29.91 in 10.0 mi WSW 5.8 mph - N/A   Clear
7:15 PM 54.9 °F - 37.2 °F 51% 29.91 in 10.0 mi WSW 4.6 mph - N/A   Clear
7:35 PM 55.0 °F - 37.4 °F 51% 29.91 in 10.0 mi WSW 4.6 mph - N/A   Clear
7:36 PM 55.0 °F - 37.4 °F 51% 29.91 in 10.0 mi WSW 4.6 mph - N/A   Clear
7:55 PM 54.3 °F - 36.5 °F 51% 29.90 in 10.0 mi West 3.5 mph - N/A   Clear
7:56 PM 54.3 °F - 36.5 °F 51% 29.90 in 10.0 mi West 3.5 mph - N/A   Clear
8:15 PM 53.2 °F - 36.0 °F 52% 29.90 in 10.0 mi Calm Calm - N/A   Clear
8:35 PM 52.2 °F - 35.6 °F 53% 29.90 in 10.0 mi Calm Calm - N/A   Clear
8:55 PM 50.5 °F - 35.8 °F 57% 29.90 in 10.0 mi Calm Calm - N/A   Clear
8:56 PM 50.5 °F - 35.8 °F 57% 29.90 in 10.0 mi Calm Calm - N/A   Clear
9:15 PM 48.2 °F - 36.7 °F 64% 29.90 in 10.0 mi Calm Calm - N/A   Clear
9:35 PM 48.9 °F - 35.6 °F 60% 29.90 in 10.0 mi West 4.6 mph - N/A   Clear
9:55 PM 47.8 °F - 35.2 °F 62% 29.91 in 10.0 mi Calm Calm - N/A   Clear
10:15 PM 45.9 °F - 35.1 °F 66% 29.91 in 10.0 mi Calm Calm - N/A   Clear
10:35 PM 44.6 °F - 35.2 °F 70% 29.90 in 10.0 mi Calm Calm - N/A   Clear
10:36 PM 44.2 °F - 35.4 °F 71% 29.90 in 10.0 mi Calm Calm - N/A   Clear
10:55 PM 42.8 °F - 36.7 °F 79% 29.90 in 10.0 mi Calm Calm - N/A   Clear
10:56 PM 42.8 °F - 36.5 °F 78% 29.90 in 10.0 mi Calm Calm - N/A   Clear
11:15 PM 41.5 °F - 35.1 °F 78% 29.90 in 10.0 mi Calm Calm - N/A   Clear
11:35 PM 42.3 °F - 34.9 °F 75% 29.90 in 10.0 mi Calm Calm - N/A   Clear
11:55 PM 44.6 °F - 35.8 °F 71% 29.89 in 10.0 mi Calm Calm - N/A   Clear
11:56 PM 44.6 °F 43.1 °F 35.8 °F 71% 29.89 in 10.0 mi WSW 3.5 mph - N/A   Clear